Weather in Lodz

1427 UTC 18 August 2018 EPLL 181400Z 13004KT 080V190 9999 FEW050TCU 26/17 Q1019

Where pilots are born

  • Michele from Italy

    „The best”

  • Maciej from UK

    “Great place, good aircrafts and amazing atmosphere!!!”

  • Alan from Ireland

    “Fantastic flight school . Fleet of aircraft are exceptional . Instructors are second to none . I couldn't speak any higher...

22000+

Operations per year

1500+

Number of trained pilots

55+

Nationality students

How to join the training?